Regional Weather Roundup
Issued by NWS Goodland, KS

Home | Current Version | Previous Version | Text Only | Print | Product List | Glossary Off
Versions: 1 2 3 4 5 6 7 8 9 10 11 12 13 14 15 16 17 18 19 20 21 22 23 24 25 26 27 28 29 30 31 32 33 34 35 36 37 38 39 40 41 42 43 44 45 46 47 48 49 50

000
ASUS43 KGLD 240359
RWRGLD

GOODLAND FORECAST AREA HOURLY WEATHER ROUNDUP
NATIONAL WEATHER SERVICE GOODLAND KS
1000 PM MDT SAT MAY 23 2015

...OFFICIAL OBSERVATIONS...

CITY           SKY/WX    TMP DP  RH WIND       PRES   REMARKS
GOODLAND KS    CLOUDY    53  51  93 SE5       29.90R
HILL CITY KS   CLOUDY    58  57  97 E8        29.95R FOG
IMPERIAL NEB   CLOUDY    57  54  89 E17       29.91F
MCCOOK NEB     CLOUDY    57  55  93 E13       29.93F
AKRON CO       PTCLDY    46  46 100 NE7       29.93R
BURLINGTON CO  CLOUDY    50  48  93 E5        29.89R
LIMON CO       MOCLDY    46  43  89 N10       29.93F
$$

...UNOFFICIAL OBSERVATIONS...

CITY           SKY/WX    TMP DP  RH WIND       PRES   REMARKS
GOVE KS          N/A     58  32  37 MISG        N/A
LENORA KS        N/A     56  32  40 MISG        N/A
SHARON SPRINGS   N/A     58  56  94 MISG        N/A
TRENTON NEB      N/A     57  32  39 E16         N/A
KIT CARSON CO    N/A     50  47  90 MISG        N/A
$$


USA.gov is the U.S. government's official web portal to all federal, state and local government web resources and services.